DW3838 Weather Reports


Display with metric or nautical units.
time (UTC)temp
F
wind
direction
speed
MPH
gust
MPH
rain 1hr
in
rain 24hr
in
rain mn
in
humidity
%
barometer
mb
20260906193046 72 164 0.0 6.0 0.00 0.00 0.00 56 1014.8
20260906191542 70 175 1.0 8.0 0.00 0.00 0.00 63 1015.0
20260906190039 69 98 0.0 8.0 0.00 0.00 0.00 69 1015.1
20260906184537 69 235 1.0 5.0 0.00 0.00 0.00 70 1015.3
20260906183039 67 118 0.0 1.0 0.00 0.00 0.00 72 1015.3
20260906181536 65 178 0.0 7.0 0.00 0.00 0.00 76 1015.4
20260906180036 64 193 1.0 6.0 0.00 0.00 0.00 80 1015.6
20260906174532 61 105 0.0 3.0 0.00 0.00 0.00 85 1015.7
20260906173020 56 128 0.0 3.0 0.00 0.00 0.00 90 1015.7
20260906171512 54 143 0.0 4.0 0.00 0.00 0.00 92 1015.8
20260906170010 54 141 0.0 2.0 0.00 0.00 0.00 93 1015.9
20260906164507 52 169 0.0 0.0 0.00 0.00 0.00 93 1015.8
20260906163106 51 169 0.0 0.0 0.00 0.00 0.00 93 1016.0
20260906161506 50 169 0.0 0.0 0.00 0.00 0.00 93 1016.0
20260906160006 49 169 0.0 0.0 0.00 0.00 0.00 92 1015.9
20260906154510 49 169 0.0 0.0 0.00 0.00 0.00 92 1016.0
20260906153003 49 169 0.0 0.0 0.00 0.00 0.00 92 1015.9
20260906151502 48 280 0.0 0.0 0.00 0.00 0.00 92 1015.8
20260906150007 48 280 0.0 0.0 0.00 0.00 0.00 92 1015.8
20260906144621 48 280 0.0 0.0 0.00 0.00 0.00 92 1015.6
20260906143102 48 280 0.0 0.0 0.00 0.00 0.00 92 1015.5
20260906141605 48 280 0.0 0.0 0.00 0.00 0.00 92 1015.3
20260906140104 48 278 0.0 0.0 0.00 0.00 0.00 92 1015.2
20260906134559 48 278 0.0 1.0 0.00 0.01 0.00 92 1015.1
20260906133052 48 277 0.0 0.0 0.00 0.01 0.00 91 1014.9
20260906131551 48 277 0.0 0.0 0.00 0.01 0.00 91 1014.8
20260906130052 48 277 0.0 0.0 0.00 0.01 0.00 91 1014.7
20260906124550 48 277 0.0 0.0 0.00 0.01 0.00 91 1014.6
20260906123049 48 277 0.0 0.0 0.00 0.01 0.00 91 1014.6
20260906121548 48 277 0.0 0.0 0.00 0.01 0.00 91 1014.6
20260906120050 49 277 0.0 0.0 0.00 0.01 0.00 91 1014.6
20260906114550 49 277 0.0 0.0 0.00 0.01 0.00 91 1014.5
20260906113045 49 277 0.0 0.0 0.00 0.01 0.00 91 1014.5
20260906111548 49 277 0.0 0.0 0.00 0.01 0.00 91 1014.5
20260906110045 49 277 0.0 0.0 0.00 0.01 0.00 91 1014.5
20260906104548 49 277 0.0 0.0 0.00 0.01 0.00 91 1014.4
20260906103041 50 277 0.0 0.0 0.00 0.01 0.00 91 1014.4
20260906101539 50 277 0.0 0.0 0.00 0.01 0.00 91 1014.4
20260906100044 50 277 0.0 0.0 0.00 0.01 0.00 91 1014.4
20260906094602 50 277 0.0 0.0 0.00 0.01 0.00 91 1014.4
20260906093038 51 277 0.0 0.0 0.00 0.01 0.00 91 1014.6
20260906091541 51 277 0.0 0.0 0.00 0.01 0.00 91 1014.5
20260906090034 51 277 0.0 0.0 0.00 0.01 0.00 91 1014.6
20260906084537 51 277 0.0 0.0 0.00 0.01 0.00 91 1014.5
20260906083035 51 277 0.0 0.0 0.00 0.01 0.00 90 1014.5
20260906081543 52 277 0.0 0.0 0.00 0.01 0.00 90 1014.6
20260906080029 52 277 0.0 0.0 0.00 0.01 0.00 90 1014.5
20260906074532 52 277 0.0 0.0 0.00 0.01 0.00 90 1014.5
20260906073026 52 277 0.0 0.0 0.00 0.01 0.00 90 1014.6
20260906071525 52 277 0.0 0.0 0.00 0.01 0.00 90 1014.6
20260906070024 52 275 0.0 0.0 0.00 0.01 0.00 90 1014.6
20260906064523 53 275 0.0 0.0 0.00 0.01 0.01 90 1014.6
20260906063028 53 275 0.0 0.0 0.00 0.01 0.01 89 1014.5
20260906061533 53 275 0.0 0.0 0.00 0.01 0.01 88 1014.5
20260906060021 53 275 0.0 0.0 0.00 0.01 0.01 88 1014.5
20260906054521 54 275 0.0 0.0 0.00 0.01 0.01 87 1014.5
20260906053021 54 275 0.0 0.0 0.00 0.01 0.01 86 1014.5
20260906051521 55 275 0.0 0.0 0.00 0.01 0.01 85 1014.5
20260906050022 55 275 0.0 0.0 0.00 0.01 0.01 85 1014.5
20260906044527 55 275 0.0 0.0 0.00 0.01 0.01 84 1014.6
20260906043019 56 277 0.0 0.0 0.00 0.01 0.01 83 1014.5
20260906041519 56 277 0.0 0.0 0.00 0.01 0.01 81 1014.4
20260906040024 57 277 0.0 0.0 0.00 0.01 0.01 80 1014.3
20260906034518 58 265 0.0 0.0 0.00 0.01 0.01 78 1014.1
20260906033018 59 265 0.0 0.0 0.00 0.01 0.01 76 1014.1
20260906031532 59 188 0.0 1.0 0.00 0.01 0.01 74 1013.9
20260906030017 60 355 0.0 0.0 0.00 0.01 0.01 74 1014.0
20260906024516 61 355 0.0 2.0 0.00 0.01 0.01 69 1014.0
20260906023019 62 333 0.0 0.0 0.00 0.01 0.01 69 1014.0
20260906021515 63 252 0.0 0.0 0.00 0.01 0.01 68 1014.1
20260906020014 64 252 0.0 0.0 0.00 0.01 0.01 62 1014.1
20260906014513 65 167 0.0 1.0 0.00 0.01 0.01 61 1014.2
20260906013012 66 222 0.0 3.0 0.00 0.01 0.01 61 1014.1
20260906011515 66 219 0.0 6.0 0.00 0.01 0.01 59 1014.2
20260906010011 67 100 0.0 6.0 0.00 0.01 0.01 58 1014.1
20260906004510 68 217 0.0 8.0 0.00 0.01 0.01 57 1014.1
20260906003018 69 346 1.0 11.0 0.00 0.01 0.01 53 1014.2
20260906001509 71 344 2.0 9.0 0.00 0.01 0.01 51 1014.2
20260906000008 71 142 2.0 9.0 0.00 0.01 0.01 49 1014.2
20260905234509 72 53 1.0 10.0 0.00 0.01 0.01 52 1014.2
20260905233009 74 349 1.0 9.0 0.00 0.01 0.01 49 1014.1
20260905231506 74 144 1.0 10.0 0.00 0.01 0.01 45 1014.2
20260905230003 74 194 2.0 10.0 0.00 0.01 0.01 48 1014.5
20260905224503 75 172 0.0 7.0 0.00 0.01 0.01 48 1014.6
20260905223005 75 193 0.0 6.0 0.00 0.01 0.01 48 1014.8
20260905221505 75 190 3.0 9.0 0.00 0.01 0.01 45 1014.7
20260905220002 75 113 0.0 15.0 0.00 0.01 0.01 46 1014.7
20260905214501 76 279 4.0 9.0 0.00 0.01 0.01 43 1014.8
20260905213107 76 183 1.0 11.0 0.00 0.01 0.01 46 1014.7
20260905211558 74 161 2.0 9.0 0.00 0.01 0.01 45 1014.7
20260905210108 74 174 2.0 9.0 0.00 0.01 0.01 45 1014.9
20260905204553 74 171 1.0 8.0 0.00 0.01 0.01 50 1015.0
20260905203056 74 219 2.0 11.0 0.00 0.01 0.01 55 1014.9
20260905201602 74 170 2.0 9.0 0.00 0.01 0.01 52 1014.9
20260905200111 74 165 2.0 7.0 0.00 0.01 0.01 52 1014.9
20260905194550 74 205 0.0 5.0 0.00 0.01 0.01 55 1014.9